Time,TemperatureF,DewpointF,PressureIn,WindDirection,WindDirectionDegrees,WindSpeedMPH,WindSpeedGustMPH,Humidity,HourlyPrecipIn,Conditions,Clouds,dailyrainin,SolarRadiationWatts/m^2,SoftwareType,DateUTC
2013-04-17 00:06:00,60.4,54.5,30.19,ESE,113,1.0,2.0,81,0.00,,,0.00,0,Wunderground v.1.15,2013-04-16 22:06:00,
2013-04-17 00:12:00,60.3,54.4,30.19,ESE,113,1.0,1.0,81,0.00,,,0.00,0,Wunderground v.1.15,2013-04-16 22:12:00,
2013-04-17 00:18:00,60.3,54.8,30.20,ESE,113,1.0,2.0,82,0.00,,,0.00,0,Wunderground v.1.15,2013-04-16 22:18:00,
2013-04-17 00:26:00,60.2,54.7,30.20,ESE,113,2.0,3.0,82,0.00,,,0.00,0,Wunderground v.1.15,2013-04-16 22:26:00,
2013-04-17 00:32:00,60.1,54.6,30.20,ESE,113,2.0,2.0,82,0.00,,,0.00,0,Wunderground v.1.15,2013-04-16 22:32:00,
2013-04-17 00:38:00,60.0,54.8,30.20,ESE,113,2.0,2.0,83,0.00,,,0.00,0,Wunderground v.1.15,2013-04-16 22:38:00,
2013-04-17 00:46:00,59.9,54.7,30.20,ESE,113,2.0,2.0,83,0.00,,,0.00,0,Wunderground v.1.15,2013-04-16 22:46:00,
2013-04-17 00:52:00,59.9,54.7,30.20,ESE,113,1.0,1.0,83,0.00,,,0.00,0,Wunderground v.1.15,2013-04-16 22:52:00,
2013-04-17 00:58:00,59.9,55.1,30.19,ESE,113,1.0,1.0,84,0.00,,,0.00,0,Wunderground v.1.15,2013-04-16 22:58:00,
2013-04-17 01:08:00,60.0,55.2,30.19,ESE,113,0.0,0.0,84,0.00,,,0.00,0,Wunderground v.1.15,2013-04-16 23:08:00,
2013-04-17 01:16:00,59.9,55.1,30.20,ESE,113,0.0,0.0,84,0.00,,,0.00,0,Wunderground v.1.15,2013-04-16 23:16:00,
2013-04-17 01:22:00,59.9,55.1,30.19,ESE,113,0.0,0.0,84,0.00,,,0.00,0,Wunderground v.1.15,2013-04-16 23:22:00,
2013-04-17 01:28:00,60.0,55.2,30.19,ESE,113,0.0,0.0,84,0.00,,,0.00,0,Wunderground v.1.15,2013-04-16 23:28:00,
2013-04-17 01:36:00,60.0,55.2,30.19,ESE,113,0.0,0.0,84,0.00,,,0.00,0,Wunderground v.1.15,2013-04-16 23:36:00,
2013-04-17 01:42:00,60.0,55.2,30.19,ESE,113,0.0,0.0,84,0.00,,,0.00,0,Wunderground v.1.15,2013-04-16 23:42:00,
2013-04-17 01:48:00,60.0,55.2,30.19,ESE,113,0.0,0.0,84,0.00,,,0.00,0,Wunderground v.1.15,2013-04-16 23:48:00,
2013-04-17 01:56:00,59.9,55.1,30.19,ESE,113,0.0,0.0,84,0.00,,,0.00,0,Wunderground v.1.15,2013-04-16 23:56:00,
2013-04-17 02:02:00,59.9,55.4,30.19,ESE,113,0.0,0.0,85,0.00,,,0.00,0,Wunderground v.1.15,2013-04-17 00:02:00,
2013-04-17 02:08:00,59.9,55.4,30.19,ESE,113,0.0,0.0,85,0.00,,,0.00,0,Wunderground v.1.15,2013-04-17 00:08:00,
2013-04-17 02:16:00,59.8,55.0,30.19,ESE,113,0.0,0.0,84,0.00,,,0.00,0,Wunderground v.1.15,2013-04-17 00:16:00,
2013-04-17 02:22:00,59.7,54.9,30.19,ESE,113,0.0,0.0,84,0.00,,,0.00,0,Wunderground v.1.15,2013-04-17 00:22:00,
2013-04-17 02:28:00,59.5,54.7,30.19,ESE,113,0.0,0.0,84,0.00,,,0.00,0,Wunderground v.1.15,2013-04-17 00:28:00,
2013-04-17 02:36:00,59.5,55.0,30.19,ESE,113,0.0,0.0,85,0.00,,,0.00,0,Wunderground v.1.15,2013-04-17 00:36:00,
2013-04-17 02:42:00,59.4,54.9,30.19,ESE,113,0.0,0.0,85,0.00,,,0.00,0,Wunderground v.1.15,2013-04-17 00:42:00,
2013-04-17 02:48:00,59.3,54.8,30.19,ESE,113,0.0,0.0,85,0.00,,,0.00,0,Wunderground v.1.15,2013-04-17 00:48:00,
2013-04-17 02:56:00,59.3,54.8,30.18,ESE,113,0.0,0.0,85,0.00,,,0.00,0,Wunderground v.1.15,2013-04-17 00:56:00,
2013-04-17 03:02:00,59.3,54.8,30.18,ESE,113,0.0,0.0,85,0.00,,,0.00,0,Wunderground v.1.15,2013-04-17 01:02:00,
2013-04-17 03:08:00,59.2,54.7,30.18,ESE,113,0.0,0.0,85,0.00,,,0.00,0,Wunderground v.1.15,2013-04-17 01:08:00,
2013-04-17 03:16:00,59.1,54.3,30.18,ESE,113,1.0,3.0,84,0.00,,,0.00,0,Wunderground v.1.15,2013-04-17 01:16:00,
2013-04-17 03:22:00,58.9,54.4,30.17,ESE,113,2.0,3.0,85,0.00,,,0.00,0,Wunderground v.1.15,2013-04-17 01:22:00,
2013-04-17 03:28:00,58.7,54.2,30.17,ESE,113,3.0,3.0,85,0.00,,,0.00,0,Wunderground v.1.15,2013-04-17 01:28:00,
2013-04-17 03:36:00,58.5,54.0,30.17,ESE,113,3.0,4.0,85,0.00,,,0.00,0,Wunderground v.1.15,2013-04-17 01:36:00,
2013-04-17 03:42:00,58.4,54.2,30.18,ESE,113,3.0,3.0,86,0.00,,,0.00,0,Wunderground v.1.15,2013-04-17 01:42:00,
2013-04-17 03:48:00,58.7,54.5,30.17,ESE,113,3.0,4.0,86,0.00,,,0.00,0,Wunderground v.1.15,2013-04-17 01:48:00,
2013-04-17 03:58:00,58.7,54.5,30.17,ESE,113,3.0,4.0,86,0.00,,,0.00,0,Wunderground v.1.15,2013-04-17 01:58:00,
2013-04-17 04:06:00,58.4,54.5,30.17,ESE,113,3.0,3.0,87,0.00,,,0.00,0,Wunderground v.1.15,2013-04-17 02:06:00,
2013-04-17 04:12:00,58.4,54.5,30.17,ESE,113,3.0,3.0,87,0.00,,,0.00,0,Wunderground v.1.15,2013-04-17 02:12:00,
2013-04-17 04:18:00,58.4,54.5,30.17,ESE,113,2.0,3.0,87,0.00,,,0.00,0,Wunderground v.1.15,2013-04-17 02:18:00,
2013-04-17 04:26:00,58.8,54.9,30.17,ESE,113,2.0,3.0,87,0.00,,,0.00,0,Wunderground v.1.15,2013-04-17 02:26:00,
2013-04-17 04:32:00,58.7,54.8,30.17,ESE,113,2.0,3.0,87,0.00,,,0.00,0,Wunderground v.1.15,2013-04-17 02:32:00,
2013-04-17 04:38:00,58.7,54.5,30.17,ESE,113,2.0,3.0,86,0.00,,,0.00,0,Wunderground v.1.15,2013-04-17 02:38:00,
2013-04-17 04:47:00,58.9,54.4,30.17,ESE,113,2.0,3.0,85,0.00,,,0.00,0,Wunderground v.1.15,2013-04-17 02:47:00,
2013-04-17 04:52:00,59.0,53.5,30.17,ESE,113,3.0,3.0,82,0.00,,,0.00,0,Wunderground v.1.15,2013-04-17 02:52:00,
2013-04-17 04:58:00,59.1,53.3,30.17,ESE,113,2.0,3.0,81,0.00,,,0.00,0,Wunderground v.1.15,2013-04-17 02:58:00,
2013-04-17 05:06:00,59.2,52.7,30.17,ESE,113,0.0,2.0,79,0.00,,,0.00,0,Wunderground v.1.15,2013-04-17 03:06:00,
2013-04-17 05:12:00,58.8,52.3,30.17,ESE,113,1.0,2.0,79,0.00,,,0.00,0,Wunderground v.1.15,2013-04-17 03:12:00,
2013-04-17 05:18:00,58.1,51.6,30.17,ESE,113,2.0,4.0,79,0.00,,,0.00,0,Wunderground v.1.15,2013-04-17 03:18:00,
2013-04-17 05:26:00,57.9,51.8,30.17,ESE,113,4.0,5.0,80,0.00,,,0.00,0,Wunderground v.1.15,2013-04-17 03:26:00,
2013-04-17 05:32:00,57.8,51.3,30.17,ESE,113,4.0,7.0,79,0.00,,,0.00,0,Wunderground v.1.15,2013-04-17 03:32:00,
2013-04-17 05:38:00,58.0,51.2,30.17,ESE,113,5.0,7.0,78,0.00,,,0.00,0,Wunderground v.1.15,2013-04-17 03:38:00,
2013-04-17 05:46:00,58.4,51.2,30.17,ESE,113,4.0,5.0,77,0.00,,,0.00,0,Wunderground v.1.15,2013-04-17 03:46:00,
2013-04-17 05:52:00,59.0,51.4,30.17,ESE,113,3.0,3.0,76,0.00,,,0.00,0,Wunderground v.1.15,2013-04-17 03:52:00,
2013-04-17 05:58:00,59.4,51.5,30.17,ESE,113,3.0,3.0,75,0.00,,,0.00,0,Wunderground v.1.15,2013-04-17 03:58:00,
2013-04-17 06:00:00,59.4,51.1,30.17,ESE,113,3.0,3.0,74,0.00,,,0.00,0,Wunderground v.1.15,2013-04-17 04:00:00,
2013-04-17 06:06:00,59.2,50.5,30.17,ESE,113,4.0,4.0,73,0.00,,,0.00,0,Wunderground v.1.15,2013-04-17 04:06:00,
2013-04-17 06:08:00,59.3,50.3,30.17,ESE,113,4.0,4.0,72,0.00,,,0.00,0,Wunderground v.1.15,2013-04-17 04:08:00,
2013-04-17 06:16:00,59.3,50.3,30.17,ESE,113,2.0,4.0,72,0.00,,,0.00,0,Wunderground v.1.15,2013-04-17 04:16:00,
2013-04-17 06:22:00,59.2,50.2,30.17,ESE,113,0.0,1.0,72,0.00,,,0.00,0,Wunderground v.1.15,2013-04-17 04:22:00,
2013-04-17 06:28:00,59.1,50.1,30.17,ESE,113,0.0,1.0,72,0.00,,,0.00,0,Wunderground v.1.15,2013-04-17 04:28:00,
2013-04-17 06:36:00,59.1,50.1,30.17,ESE,113,0.0,0.0,72,0.00,,,0.00,0,Wunderground v.1.15,2013-04-17 04:36:00,
2013-04-17 06:42:00,58.9,50.3,30.17,ESE,113,0.0,0.0,73,0.00,,,0.00,0,Wunderground v.1.15,2013-04-17 04:42:00,
2013-04-17 06:48:00,58.7,50.1,30.17,ESE,113,0.0,0.0,73,0.00,,,0.00,0,Wunderground v.1.15,2013-04-17 04:48:00,
2013-04-17 06:56:00,58.5,50.2,30.17,ESE,113,0.0,1.0,74,0.00,,,0.00,0,Wunderground v.1.15,2013-04-17 04:56:00,
2013-04-17 07:02:00,58.3,50.4,30.18,ESE,113,0.0,1.0,75,0.00,,,0.00,0,Wunderground v.1.15,2013-04-17 05:02:00,
2013-04-17 07:08:00,58.1,50.2,30.18,ESE,113,0.0,1.0,75,0.00,,,0.00,0,Wunderground v.1.15,2013-04-17 05:08:00,
2013-04-17 07:16:00,57.8,50.3,30.18,ESE,113,1.0,2.0,76,0.00,,,0.00,7,Wunderground v.1.15,2013-04-17 05:16:00,
2013-04-17 07:22:00,57.6,50.1,30.18,ESE,113,1.0,2.0,76,0.00,,,0.00,14,Wunderground v.1.15,2013-04-17 05:22:00,
2013-04-17 07:28:00,57.5,50.3,30.18,ESE,113,1.0,2.0,77,0.00,,,0.00,21,Wunderground v.1.15,2013-04-17 05:28:00,
2013-04-17 07:36:00,57.6,50.8,30.18,ESE,113,1.0,2.0,78,0.00,,,0.00,32,Wunderground v.1.15,2013-04-17 05:36:00,
2013-04-17 07:42:00,57.8,51.0,30.18,ESE,113,1.0,1.0,78,0.00,,,0.00,47,Wunderground v.1.15,2013-04-17 05:42:00,
2013-04-17 07:48:00,58.0,51.2,30.19,ESE,113,2.0,3.0,78,0.00,,,0.00,58,Wunderground v.1.15,2013-04-17 05:48:00,
2013-04-17 07:56:00,58.0,51.2,30.19,ESE,113,3.0,3.0,78,0.00,,,0.00,84,Wunderground v.1.15,2013-04-17 05:56:00,
2013-04-17 08:02:00,58.2,51.4,30.20,ESE,113,2.0,3.0,78,0.00,,,0.00,102,Wunderground v.1.15,2013-04-17 06:02:00,
2013-04-17 08:08:00,58.6,52.1,30.20,ESE,113,3.0,5.0,79,0.00,,,0.00,127,Wunderground v.1.15,2013-04-17 06:08:00,
2013-04-17 08:16:00,59.0,52.5,30.20,ESE,113,3.0,4.0,79,0.00,,,0.00,127,Wunderground v.1.15,2013-04-17 06:16:00,
2013-04-17 08:22:00,59.3,52.8,30.20,ESE,113,3.0,3.0,79,0.00,,,0.00,113,Wunderground v.1.15,2013-04-17 06:22:00,
2013-04-17 08:28:00,59.4,52.9,30.20,ESE,113,2.0,3.0,79,0.00,,,0.00,179,Wunderground v.1.15,2013-04-17 06:28:00,
2013-04-17 08:36:00,59.8,53.6,30.20,ESE,113,2.0,3.0,80,0.00,,,0.00,218,Wunderground v.1.15,2013-04-17 06:36:00,
2013-04-17 08:42:00,60.3,54.1,30.20,ESE,113,2.0,2.0,80,0.00,,,0.00,241,Wunderground v.1.15,2013-04-17 06:42:00,
2013-04-17 08:48:00,60.9,54.3,30.20,ESE,113,1.0,2.0,79,0.00,,,0.00,253,Wunderground v.1.15,2013-04-17 06:48:00,
2013-04-17 08:56:00,62.0,55.1,30.20,ESE,113,0.0,2.0,78,0.00,,,0.00,267,Wunderground v.1.15,2013-04-17 06:56:00,
2013-04-17 09:02:00,62.7,55.0,30.20,ESE,113,1.0,4.0,76,0.00,,,0.00,311,Wunderground v.1.15,2013-04-17 07:02:00,
2013-04-17 09:08:00,63.3,55.2,30.20,ESE,113,2.0,4.0,75,0.00,,,0.00,330,Wunderground v.1.15,2013-04-17 07:08:00,
2013-04-17 09:16:00,64.0,55.2,30.21,ESE,113,2.0,3.0,73,0.00,,,0.00,343,Wunderground v.1.15,2013-04-17 07:16:00,
2013-04-17 09:22:00,64.5,55.7,30.21,ESE,113,1.0,1.0,73,0.00,,,0.00,348,Wunderground v.1.15,2013-04-17 07:22:00,
2013-04-17 09:28:00,64.8,55.6,30.21,ESE,113,1.0,3.0,72,0.00,,,0.00,330,Wunderground v.1.15,2013-04-17 07:28:00,
2013-04-17 09:36:00,65.5,56.2,30.21,ESE,113,1.0,1.0,72,0.00,,,0.00,418,Wunderground v.1.15,2013-04-17 07:36:00,
2013-04-17 09:42:00,66.2,56.1,30.21,ESE,113,0.0,0.0,70,0.00,,,0.00,425,Wunderground v.1.15,2013-04-17 07:42:00,
2013-04-17 09:48:00,66.8,56.3,30.20,ESE,113,0.0,0.0,69,0.00,,,0.00,417,Wunderground v.1.15,2013-04-17 07:48:00,
2013-04-17 09:56:00,67.7,56.8,30.20,ESE,113,0.0,0.0,68,0.00,,,0.00,490,Wunderground v.1.15,2013-04-17 07:56:00,
2013-04-17 10:02:00,68.1,57.1,30.21,ESE,113,0.0,0.0,68,0.00,,,0.00,482,Wunderground v.1.15,2013-04-17 08:02:00,
2013-04-17 10:08:00,68.3,56.1,30.20,ESE,113,0.0,3.0,65,0.00,,,0.00,517,Wunderground v.1.15,2013-04-17 08:08:00,
2013-04-17 10:16:00,68.3,54.8,30.20,ESE,113,0.0,1.0,62,0.00,,,0.00,543,Wunderground v.1.15,2013-04-17 08:16:00,
2013-04-17 10:22:00,68.7,56.0,30.20,ESE,113,0.0,0.0,64,0.00,,,0.00,554,Wunderground v.1.15,2013-04-17 08:22:00,
2013-04-17 10:28:00,68.5,55.4,30.21,ESE,113,1.0,1.0,63,0.00,,,0.00,570,Wunderground v.1.15,2013-04-17 08:28:00,
2013-04-17 10:36:00,69.4,55.4,30.21,ESE,113,0.0,2.0,61,0.00,,,0.00,578,Wunderground v.1.15,2013-04-17 08:36:00,
2013-04-17 10:42:00,70.1,54.2,30.21,ESE,113,1.0,1.0,57,0.00,,,0.00,603,Wunderground v.1.15,2013-04-17 08:42:00,
2013-04-17 10:48:00,70.8,53.8,30.21,ESE,113,1.0,3.0,55,0.00,,,0.00,633,Wunderground v.1.15,2013-04-17 08:48:00,
2013-04-17 10:56:00,71.8,53.2,30.21,ESE,113,3.0,4.0,52,0.00,,,0.00,643,Wunderground v.1.15,2013-04-17 08:56:00,
2013-04-17 11:02:00,72.4,52.7,30.21,ESE,113,3.0,3.0,50,0.00,,,0.00,673,Wunderground v.1.15,2013-04-17 09:02:00,
2013-04-17 11:08:00,72.9,52.1,30.21,ESE,113,2.0,3.0,48,0.00,,,0.00,686,Wunderground v.1.15,2013-04-17 09:08:00,
2013-04-17 11:16:00,72.4,52.2,30.21,ESE,113,1.0,2.0,49,0.00,,,0.00,691,Wunderground v.1.15,2013-04-17 09:16:00,
2013-04-17 11:22:00,72.7,53.0,30.21,ESE,113,0.0,1.0,50,0.00,,,0.00,710,Wunderground v.1.15,2013-04-17 09:22:00,
2013-04-17 11:28:00,73.3,53.5,30.21,ESE,113,0.0,1.0,50,0.00,,,0.00,724,Wunderground v.1.15,2013-04-17 09:28:00,
2013-04-17 11:36:00,74.5,54.6,30.21,ESE,113,1.0,3.0,50,0.00,,,0.00,737,Wunderground v.1.15,2013-04-17 09:36:00,
2013-04-17 11:42:00,75.0,54.0,30.20,ESE,113,0.0,2.0,48,0.00,,,0.00,738,Wunderground v.1.15,2013-04-17 09:42:00,
2013-04-17 11:48:00,74.3,52.8,30.21,ESE,113,1.0,3.0,47,0.00,,,0.00,758,Wunderground v.1.15,2013-04-17 09:48:00,
2013-04-17 11:56:00,73.7,52.2,30.21,ESE,113,2.0,4.0,47,0.00,,,0.00,784,Wunderground v.1.15,2013-04-17 09:56:00,
2013-04-17 12:02:00,73.7,51.6,30.21,ESE,113,2.0,5.0,46,0.00,,,0.00,798,Wunderground v.1.15,2013-04-17 10:02:00,
2013-04-17 12:08:00,73.5,52.6,30.21,ESE,113,2.0,5.0,48,0.00,,,0.00,803,Wunderground v.1.15,2013-04-17 10:08:00,
2013-04-17 12:18:00,74.5,53.5,30.21,ESE,113,1.0,2.0,48,0.00,,,0.00,812,Wunderground v.1.15,2013-04-17 10:18:00,
2013-04-17 12:26:00,75.3,53.7,30.20,ESE,113,1.0,3.0,47,0.00,,,0.00,826,Wunderground v.1.15,2013-04-17 10:26:00,
2013-04-17 12:32:00,75.7,54.0,30.20,ESE,113,1.0,1.0,47,0.00,,,0.00,837,Wunderground v.1.15,2013-04-17 10:32:00,
2013-04-17 12:38:00,76.0,54.3,30.20,ESE,113,1.0,4.0,47,0.00,,,0.00,837,Wunderground v.1.15,2013-04-17 10:38:00,
2013-04-17 12:46:00,76.0,53.1,30.20,ESE,113,1.0,3.0,45,0.00,,,0.00,838,Wunderground v.1.15,2013-04-17 10:46:00,
2013-04-17 12:52:00,76.5,52.3,30.20,ESE,113,1.0,1.0,43,0.00,,,0.00,853,Wunderground v.1.15,2013-04-17 10:52:00,
2013-04-17 12:58:00,76.3,53.4,30.20,ESE,113,2.0,3.0,45,0.00,,,0.00,854,Wunderground v.1.15,2013-04-17 10:58:00,
2013-04-17 13:06:00,76.1,52.6,30.19,ESE,113,2.0,3.0,44,0.00,,,0.00,856,Wunderground v.1.15,2013-04-17 11:06:00,
2013-04-17 13:12:00,75.8,53.5,30.19,ESE,113,1.0,1.0,46,0.00,,,0.00,858,Wunderground v.1.15,2013-04-17 11:12:00,
2013-04-17 13:18:00,76.6,52.4,30.19,ESE,113,1.0,3.0,43,0.00,,,0.00,861,Wunderground v.1.15,2013-04-17 11:18:00,
2013-04-17 13:26:00,77.6,50.7,30.19,ESE,113,2.0,2.0,39,0.00,,,0.00,870,Wunderground v.1.15,2013-04-17 11:26:00,
2013-04-17 13:32:00,77.2,48.9,30.19,ESE,113,3.0,4.0,37,0.00,,,0.00,877,Wunderground v.1.15,2013-04-17 11:32:00,
2013-04-17 13:38:00,77.6,47.8,30.19,ESE,113,2.0,4.0,35,0.00,,,0.00,884,Wunderground v.1.15,2013-04-17 11:38:00,
2013-04-17 13:46:00,77.5,48.4,30.19,ESE,113,3.0,4.0,36,0.00,,,0.00,872,Wunderground v.1.15,2013-04-17 11:46:00,
2013-04-17 13:52:00,78.1,49.7,30.19,ESE,113,2.0,2.0,37,0.00,,,0.00,858,Wunderground v.1.15,2013-04-17 11:52:00,
2013-04-17 13:58:00,79.2,52.1,30.19,ESE,113,2.0,5.0,39,0.00,,,0.00,877,Wunderground v.1.15,2013-04-17 11:58:00,
2013-04-17 14:06:00,80.5,51.8,30.18,East,89,4.0,7.0,37,0.00,,,0.00,874,Wunderground v.1.15,2013-04-17 12:06:00,
2013-04-17 14:12:00,81.1,52.4,30.18,East,88,3.0,5.0,37,0.00,,,0.00,796,Wunderground v.1.15,2013-04-17 12:12:00,
2013-04-17 14:18:00,82.0,53.9,30.18,East,88,4.0,6.0,38,0.00,,,0.00,863,Wunderground v.1.15,2013-04-17 12:18:00,
2013-04-17 14:26:00,82.6,53.7,30.18,ESE,106,4.0,11.0,37,0.00,,,0.00,868,Wunderground v.1.15,2013-04-17 12:26:00,
2013-04-17 14:32:00,82.7,55.2,30.18,East,93,6.0,11.0,39,0.00,,,0.00,830,Wunderground v.1.15,2013-04-17 12:32:00,
2013-04-17 14:38:00,82.3,56.9,30.18,ESE,107,8.0,11.0,42,0.00,,,0.00,847,Wunderground v.1.15,2013-04-17 12:38:00,
2013-04-17 14:46:00,81.4,58.0,30.18,ESE,106,10.0,13.0,45,0.00,,,0.00,824,Wunderground v.1.15,2013-04-17 12:46:00,
2013-04-17 14:52:00,80.5,58.4,30.18,ESE,102,10.0,11.0,47,0.00,,,0.00,844,Wunderground v.1.15,2013-04-17 12:52:00,
2013-04-17 14:58:00,80.0,58.0,30.18,ESE,110,9.0,11.0,47,0.00,,,0.00,807,Wunderground v.1.15,2013-04-17 12:58:00,
2013-04-17 15:06:00,79.8,57.8,30.18,East,96,9.0,9.0,47,0.00,,,0.00,816,Wunderground v.1.15,2013-04-17 13:06:00,
2013-04-17 15:12:00,79.6,57.6,30.17,East,99,9.0,11.0,47,0.00,,,0.00,810,Wunderground v.1.15,2013-04-17 13:12:00,
2013-04-17 15:18:00,79.6,57.0,30.18,ESE,105,9.0,11.0,46,0.00,,,0.00,788,Wunderground v.1.15,2013-04-17 13:18:00,
2013-04-17 15:26:00,79.6,56.4,30.17,ESE,103,8.0,10.0,45,0.00,,,0.00,798,Wunderground v.1.15,2013-04-17 13:26:00,
2013-04-17 15:32:00,79.3,57.3,30.17,ESE,118,8.0,11.0,47,0.00,,,0.00,789,Wunderground v.1.15,2013-04-17 13:32:00,
2013-04-17 15:38:00,79.5,58.1,30.17,East,101,7.0,11.0,48,0.00,,,0.00,779,Wunderground v.1.15,2013-04-17 13:38:00,
2013-04-17 15:46:00,79.7,57.7,30.17,East,87,7.0,10.0,47,0.00,,,0.00,759,Wunderground v.1.15,2013-04-17 13:46:00,
2013-04-17 15:52:00,79.2,57.2,30.17,ESE,105,8.0,10.0,47,0.00,,,0.00,729,Wunderground v.1.15,2013-04-17 13:52:00,
2013-04-17 15:58:00,78.7,57.4,30.17,ESE,106,8.0,11.0,48,0.00,,,0.00,735,Wunderground v.1.15,2013-04-17 13:58:00,
2013-04-17 16:06:00,78.5,57.2,30.17,ESE,113,9.0,11.0,48,0.00,,,0.00,715,Wunderground v.1.15,2013-04-17 14:06:00,
2013-04-17 16:12:00,78.0,56.7,30.17,ESE,105,9.0,13.0,48,0.00,,,0.00,701,Wunderground v.1.15,2013-04-17 14:12:00,
2013-04-17 16:18:00,77.5,56.8,30.17,ESE,116,9.0,13.0,49,0.00,,,0.00,694,Wunderground v.1.15,2013-04-17 14:18:00,
2013-04-17 16:26:00,77.3,56.6,30.16,East,99,9.0,10.0,49,0.00,,,0.00,670,Wunderground v.1.15,2013-04-17 14:26:00,
2013-04-17 16:32:00,77.1,55.3,30.16,ESE,118,9.0,9.0,47,0.00,,,0.00,659,Wunderground v.1.15,2013-04-17 14:32:00,
2013-04-17 16:38:00,77.0,55.8,30.16,East,101,9.0,9.0,48,0.00,,,0.00,638,Wunderground v.1.15,2013-04-17 14:38:00,
2013-04-17 16:46:00,76.8,56.2,30.16,ESE,118,8.0,11.0,49,0.00,,,0.00,626,Wunderground v.1.15,2013-04-17 14:46:00,
2013-04-17 16:52:00,76.6,56.6,30.16,ESE,102,8.0,8.0,50,0.00,,,0.00,610,Wunderground v.1.15,2013-04-17 14:52:00,
2013-04-17 16:58:00,76.7,56.7,30.16,ESE,119,7.0,8.0,50,0.00,,,0.00,591,Wunderground v.1.15,2013-04-17 14:58:00,
2013-04-17 17:06:00,76.6,56.6,30.16,SE,129,4.0,5.0,50,0.00,,,0.00,566,Wunderground v.1.15,2013-04-17 15:06:00,
2013-04-17 17:12:00,76.5,55.9,30.16,SE,125,4.0,4.0,49,0.00,,,0.00,550,Wunderground v.1.15,2013-04-17 15:12:00,
2013-04-17 17:18:00,76.9,55.7,30.16,ESE,123,4.0,4.0,48,0.00,,,0.00,531,Wunderground v.1.15,2013-04-17 15:18:00,
2013-04-17 17:26:00,77.3,55.5,30.16,ESE,119,5.0,5.0,47,0.00,,,0.00,512,Wunderground v.1.15,2013-04-17 15:26:00,
2013-04-17 17:32:00,76.0,55.5,30.16,SE,125,3.0,4.0,49,0.00,,,0.00,492,Wunderground v.1.15,2013-04-17 15:32:00,
2013-04-17 17:38:00,74.9,55.6,30.16,SE,132,3.0,6.0,51,0.00,,,0.00,475,Wunderground v.1.15,2013-04-17 15:38:00,
2013-04-17 17:46:00,74.6,56.3,30.16,SE,138,3.0,5.0,53,0.00,,,0.00,448,Wunderground v.1.15,2013-04-17 15:46:00,
2013-04-17 17:52:00,75.3,57.0,30.16,ESE,108,3.0,5.0,53,0.00,,,0.00,431,Wunderground v.1.15,2013-04-17 15:52:00,
2013-04-17 17:58:00,76.0,56.6,30.16,ESE,107,4.0,5.0,51,0.00,,,0.00,410,Wunderground v.1.15,2013-04-17 15:58:00,
2013-04-17 18:06:00,75.3,55.4,30.16,ESE,114,3.0,7.0,50,0.00,,,0.00,387,Wunderground v.1.15,2013-04-17 16:06:00,
2013-04-17 18:12:00,74.9,55.0,30.16,ESE,119,4.0,4.0,50,0.00,,,0.00,367,Wunderground v.1.15,2013-04-17 16:12:00,
2013-04-17 18:18:00,74.9,55.0,30.16,ESE,119,3.0,4.0,50,0.00,,,0.00,348,Wunderground v.1.15,2013-04-17 16:18:00,
2013-04-17 18:26:00,75.2,54.7,30.16,ESE,118,4.0,4.0,49,0.00,,,0.00,322,Wunderground v.1.15,2013-04-17 16:26:00,
2013-04-17 18:32:00,74.6,54.7,30.16,SE,130,3.0,4.0,50,0.00,,,0.00,302,Wunderground v.1.15,2013-04-17 16:32:00,
2013-04-17 18:38:00,74.2,54.4,30.16,ESE,123,3.0,7.0,50,0.00,,,0.00,285,Wunderground v.1.15,2013-04-17 16:38:00,
2013-04-17 18:46:00,73.9,53.5,30.16,ESE,121,6.0,7.0,49,0.00,,,0.00,257,Wunderground v.1.15,2013-04-17 16:46:00,
2013-04-17 18:52:00,73.8,53.4,30.16,ESE,115,6.0,6.0,49,0.00,,,0.00,237,Wunderground v.1.15,2013-04-17 16:52:00,
2013-04-17 18:58:00,73.4,53.6,30.16,ESE,118,6.0,7.0,50,0.00,,,0.00,218,Wunderground v.1.15,2013-04-17 16:58:00,
2013-04-17 19:06:00,72.8,53.6,30.16,ESE,117,5.0,6.0,51,0.00,,,0.00,193,Wunderground v.1.15,2013-04-17 17:06:00,
2013-04-17 19:12:00,72.4,53.2,30.16,ESE,113,5.0,5.0,51,0.00,,,0.00,174,Wunderground v.1.15,2013-04-17 17:12:00,
2013-04-17 19:18:00,72.1,53.5,30.16,ESE,110,5.0,7.0,52,0.00,,,0.00,156,Wunderground v.1.15,2013-04-17 17:18:00,
2013-04-17 19:26:00,71.3,53.8,30.16,ESE,110,5.0,7.0,54,0.00,,,0.00,130,Wunderground v.1.15,2013-04-17 17:26:00,
2013-04-17 19:32:00,70.9,53.9,30.16,ESE,109,5.0,5.0,55,0.00,,,0.00,107,Wunderground v.1.15,2013-04-17 17:32:00,
2013-04-17 19:38:00,70.6,53.6,30.16,ESE,109,4.0,7.0,55,0.00,,,0.00,88,Wunderground v.1.15,2013-04-17 17:38:00,
2013-04-17 19:46:00,70.0,54.1,30.16,ESE,109,4.0,5.0,57,0.00,,,0.00,65,Wunderground v.1.15,2013-04-17 17:46:00,
2013-04-17 19:52:00,69.7,53.8,30.16,ESE,109,3.0,5.0,57,0.00,,,0.00,51,Wunderground v.1.15,2013-04-17 17:52:00,
2013-04-17 19:58:00,69.3,53.4,30.16,ESE,109,4.0,5.0,57,0.00,,,0.00,37,Wunderground v.1.15,2013-04-17 17:58:00,
2013-04-17 20:06:00,68.4,53.5,30.16,ESE,109,4.0,4.0,59,0.00,,,0.00,18,Wunderground v.1.15,2013-04-17 18:06:00,
2013-04-17 20:12:00,67.7,53.8,30.16,ESE,109,4.0,5.0,61,0.00,,,0.00,14,Wunderground v.1.15,2013-04-17 18:12:00,
2013-04-17 20:18:00,67.2,53.7,30.16,ESE,109,4.0,5.0,62,0.00,,,0.00,11,Wunderground v.1.15,2013-04-17 18:18:00,
2013-04-17 20:26:00,66.6,54.0,30.17,ESE,109,2.0,4.0,64,0.00,,,0.00,5,Wunderground v.1.15,2013-04-17 18:26:00,
2013-04-17 20:32:00,66.2,54.1,30.17,ESE,109,3.0,3.0,65,0.00,,,0.00,0,Wunderground v.1.15,2013-04-17 18:32:00,
2013-04-17 20:38:00,65.9,54.2,30.17,ESE,109,2.0,3.0,66,0.00,,,0.00,0,Wunderground v.1.15,2013-04-17 18:38:00,
2013-04-17 20:48:00,65.7,54.4,30.17,ESE,109,1.0,2.0,67,0.00,,,0.00,0,Wunderground v.1.15,2013-04-17 18:48:00,
2013-04-17 20:58:00,65.3,54.5,30.17,ESE,109,1.0,2.0,68,0.00,,,0.00,0,Wunderground v.1.15,2013-04-17 18:58:00,
2013-04-17 21:06:00,64.9,54.1,30.17,ESE,109,1.0,3.0,68,0.00,,,0.00,0,Wunderground v.1.15,2013-04-17 19:06:00,
2013-04-17 21:12:00,64.6,54.2,30.17,ESE,109,1.0,1.0,69,0.00,,,0.00,0,Wunderground v.1.15,2013-04-17 19:12:00,
2013-04-17 21:18:00,64.5,54.5,30.17,ESE,109,0.0,1.0,70,0.00,,,0.00,0,Wunderground v.1.15,2013-04-17 19:18:00,
2013-04-17 21:28:00,64.2,54.6,30.17,ESE,109,0.0,0.0,71,0.00,,,0.00,0,Wunderground v.1.15,2013-04-17 19:28:00,
2013-04-17 21:36:00,63.8,54.6,30.18,ESE,109,0.0,0.0,72,0.00,,,0.00,0,Wunderground v.1.15,2013-04-17 19:36:00,
2013-04-17 21:42:00,63.6,54.8,30.18,ESE,109,0.0,0.0,73,0.00,,,0.00,0,Wunderground v.1.15,2013-04-17 19:42:00,
2013-04-17 21:48:00,63.4,54.6,30.18,ESE,109,0.0,0.0,73,0.00,,,0.00,0,Wunderground v.1.15,2013-04-17 19:48:00,
2013-04-17 21:56:00,63.3,54.9,30.18,ESE,109,0.0,1.0,74,0.00,,,0.00,0,Wunderground v.1.15,2013-04-17 19:56:00,
2013-04-17 22:02:00,63.2,54.8,30.18,ESE,109,0.0,0.0,74,0.00,,,0.00,0,Wunderground v.1.15,2013-04-17 20:02:00,
2013-04-17 22:08:00,63.2,55.1,30.18,ESE,109,0.0,0.0,75,0.00,,,0.00,0,Wunderground v.1.15,2013-04-17 20:08:00,
2013-04-17 22:16:00,62.9,54.9,30.18,ESE,109,0.0,0.0,75,0.00,,,0.00,0,Wunderground v.1.15,2013-04-17 20:16:00,
2013-04-17 22:22:00,62.5,54.5,30.18,ESE,109,0.0,0.0,75,0.00,,,0.00,0,Wunderground v.1.15,2013-04-17 20:22:00,
2013-04-17 22:28:00,62.2,54.2,30.18,ESE,109,0.0,0.0,75,0.00,,,0.00,0,Wunderground v.1.15,2013-04-17 20:28:00,
2013-04-17 22:36:00,62.0,54.3,30.18,ESE,109,0.0,1.0,76,0.00,,,0.00,0,Wunderground v.1.15,2013-04-17 20:36:00,
2013-04-17 22:42:00,61.6,54.0,30.18,ESE,109,0.0,0.0,76,0.00,,,0.00,0,Wunderground v.1.15,2013-04-17 20:42:00,
2013-04-17 22:48:00,61.3,53.7,30.18,ESE,109,0.0,2.0,76,0.00,,,0.00,0,Wunderground v.1.15,2013-04-17 20:48:00,
2013-04-17 22:56:00,61.2,53.6,30.18,ESE,109,1.0,3.0,76,0.00,,,0.00,0,Wunderground v.1.15,2013-04-17 20:56:00,
2013-04-17 23:02:00,60.8,53.5,30.18,ESE,109,2.0,3.0,77,0.00,,,0.00,0,Wunderground v.1.15,2013-04-17 21:02:00,
2013-04-17 23:08:00,60.6,53.7,30.18,ESE,109,2.0,3.0,78,0.00,,,0.00,0,Wunderground v.1.15,2013-04-17 21:08:00,
2013-04-17 23:16:00,60.6,54.4,30.18,ESE,109,2.0,2.0,80,0.00,,,0.00,0,Wunderground v.1.15,2013-04-17 21:16:00,
2013-04-17 23:22:00,60.8,54.9,30.18,ESE,109,1.0,2.0,81,0.00,,,0.00,0,Wunderground v.1.15,2013-04-17 21:22:00,
2013-04-17 23:28:00,60.7,55.2,30.18,ESE,109,1.0,2.0,82,0.00,,,0.00,0,Wunderground v.1.15,2013-04-17 21:28:00,
2013-04-17 23:36:00,60.8,55.3,30.18,ESE,109,0.0,0.0,82,0.00,,,0.00,0,Wunderground v.1.15,2013-04-17 21:36:00,
2013-04-17 23:42:00,61.1,55.6,30.18,ESE,109,0.0,0.0,82,0.00,,,0.00,0,Wunderground v.1.15,2013-04-17 21:42:00,
2013-04-17 23:48:00,61.1,55.6,30.18,ESE,109,0.0,1.0,82,0.00,,,0.00,0,Wunderground v.1.15,2013-04-17 21:48:00,
2013-04-17 23:56:00,60.9,55.4,30.18,ESE,109,1.0,1.0,82,0.00,,,0.00,0,Wunderground v.1.15,2013-04-17 21:56:00,